[[[{"header":{"parameterUnit":"kt","parameterCategory":2,"dx":1,"dy":1,"la1":30.253999710083008,"la2":30.299108505249023,"lo1":-89.0895004272461,"lo2":-89.04439544677734,"nx":28,"ny":28,"refTime":"2022-10-06T21:00:00:Z","depth":0,"parameterNumber":1,"parameterNumberName":"U-component_of_WINDS"},"data":[2.1959,2.2087,2.213,2.2297,2.2364,2.2487,2.2545,2.2625,2.2701,2.2855,2.2952,2.3011,2.3106,2.3235,2.3344,2.3369,2.3413,2.3426,2.3453,2.3349,2.3338,2.3328,2.3298,2.3435,2.3435,2.3554,2.3555,2.3556,2.1878,2.1944,2.2045,2.2172,2.226,2.2272,2.2375,2.2448,2.2559,2.2653,2.2751,2.2892,2.301,2.3103,2.3225,2.329,2.3304,2.3319,2.3316,2.3331,2.3222,2.319,2.3306,2.3306,2.3306,2.3306,2.3306,2.3306,2.1743,2.1818,2.1919,2.203,2.2106,2.2191,2.2272,2.2341,2.2443,2.2572,2.2606,2.2734,2.2839,2.3009,2.3078,2.3181,2.3172,2.3204,2.3213,2.322,2.3221,2.3042,2.3204,2.3204,2.3204,2.3204,2.3204,0,2.1656,2.1687,2.1786,2.1899,2.1982,2.2075,2.2167,2.2219,2.2302,2.2383,2.2504,2.2582,2.2738,2.2859,2.2984,2.3051,2.3075,2.3083,2.3106,2.309,2.3059,2.3077,2.2897,2.3078,2.3077,2.3077,2.3076,2.3076,2.1523,2.1606,2.1733,2.1798,2.1859,2.1963,2.2034,2.21,2.2174,2.23,2.2365,2.2487,2.2588,2.2779,2.2864,2.2982,2.2995,2.3059,2.3013,2.2994,2.2997,2.2991,2.3,2.3067,2.3068,2.3069,2.307,0,2.1444,2.1513,2.1657,2.1775,2.1808,2.1893,2.1996,2.2077,2.2136,2.2256,2.2287,2.2382,2.2502,2.2577,2.2731,2.2767,2.2913,2.2923,2.2876,2.2882,2.2947,2.294,2.3146,2.3176,2.3035,2.3037,2.3038,0,2.1357,2.1465,2.1562,2.1642,2.1765,2.1828,2.1948,2.2011,2.2102,2.2196,2.2234,2.2322,2.2404,2.2505,2.2558,2.269,2.272,2.2755,2.2768,2.2752,2.2747,2.2794,2.2787,2.2794,2.2793,2.2792,2.2791,0,2.1225,2.1404,2.1534,2.1586,2.1725,2.1785,2.1847,2.1948,2.2019,2.2122,2.2169,2.2287,2.2351,2.2442,2.2509,2.2475,2.2673,2.264,2.2709,2.2708,2.275,2.2746,2.2909,2.2789,2.2789,2.2789,2.2788,0,2.1166,2.1266,2.1444,2.156,2.1604,2.1691,2.1808,2.19,2.2005,2.2043,2.2126,2.216,2.2282,2.2243,2.2413,2.2349,2.2412,2.2457,2.2463,2.2479,2.2434,2.2516,2.2663,2.2682,2.2493,2.2491,2.2489,0,2.0996,2.1194,2.1249,2.1418,2.1519,2.1553,2.1651,2.1742,2.1801,2.1898,2.1964,2.2075,2.2063,2.2108,2.2182,2.2256,2.2338,2.2247,2.239,2.2394,2.2359,2.2496,2.2499,2.2622,2.2458,2.2461,2.2464,0,2.0873,2.1038,2.1064,2.1127,2.1256,2.1342,2.1454,2.1577,2.1638,2.1738,2.1835,2.1994,2.1991,2.2065,2.2107,2.218,2.2284,2.2167,2.2171,2.2186,2.2449,2.2451,2.2471,2.2296,2.23,2.2303,2.2439,0,2.0768,2.0876,2.0949,2.1085,2.1163,2.1273,2.1348,2.1421,2.1451,2.151,2.1655,2.1752,2.188,2.1923,2.1955,2.2098,2.2086,2.2082,2.2051,2.214,2.2187,2.2206,2.1974,2.1974,2.1974,2.1973,0,0,2.0588,2.0744,2.0801,2.0911,2.098,2.1013,2.1124,2.1196,2.1341,2.1389,2.1372,2.1609,2.1689,2.1858,2.1892,2.1944,2.1978,2.1944,2.2097,2.211,2.2123,2.2171,2.219,2.1973,2.1972,2.1972,2.1972,0,2.0564,2.0639,2.0747,2.0823,2.0937,2.0994,2.1019,2.114,2.1183,2.1325,2.1353,2.145,2.1639,2.172,2.1786,2.1925,2.1942,2.1959,2.2006,2.209,2.2104,2.2116,2.2167,2.2184,2.1971,2.1971,2.1971,0,2.0457,2.0543,2.0603,2.076,2.0836,2.094,2.0925,2.1036,2.1115,2.115,2.129,2.1355,2.1471,2.162,2.169,2.1677,2.1905,2.1848,2.1852,2.1862,2.1947,2.1964,2.1978,2.1784,2.1783,2.1782,0,0,2.0426,2.0527,2.0641,2.076,2.0806,2.0892,2.0955,2.0991,2.1092,2.1132,2.1215,2.1314,2.1425,2.1496,2.1604,2.1757,2.1788,2.1821,2.183,2.1837,2.185,2.1937,2.1953,2.1778,2.1778,2.1778,0,0,2.0413,2.0549,2.056,2.0707,2.08,2.0923,2.0994,2.1012,2.1116,2.1112,2.1182,2.1212,2.1353,2.1416,2.1357,2.1595,2.1563,2.1579,2.1548,2.1561,2.1569,2.1551,2.1357,0,0,0,0,0,2.0427,2.0531,2.054,2.0576,2.0776,2.0917,2.0943,2.1001,2.0976,2.1031,2.1104,2.1118,2.1398,2.1347,2.1384,2.145,2.173,2.1738,2.1747,2.1744,2.1756,2.1766,0,0,0,0,0,0,2.0442,2.0485,2.0538,2.0663,2.0709,2.0914,2.0884,2.0903,2.0971,2.0972,2.1103,2.1122,2.1176,2.1333,2.1365,2.1426,2.1346,2.1733,2.174,2.1747,2.1748,2.1758,2.1766,0,0,0,0,0,2.0453,2.0488,2.0794,2.0662,2.0702,2.0803,2.088,2.0896,2.0951,2.1063,2.1082,2.0988,2.1176,2.1207,2.1352,2.141,2.1325,2.1336,2.1738,2.1744,2.1749,2.1753,0,0,0,0,0,0,2.0462,2.0505,2.0803,2.0817,2.0626,2.0793,2.0821,2.089,2.1039,2.1059,2.0951,2.0949,2.1178,2.1202,2.1225,2.1401,2.1307,2.1319,2.1326,2.1742,2.1747,2.1751,0,0,0,0,0,0,2.0487,2.0517,2.081,2.0762,2.0771,2.0783,2.0808,2.094,2.1041,2.0919,2.0922,2.0948,2.1143,2.1198,2.1216,2.1421,2.1293,2.1305,2.1313,2.1318,2.1746,2.1749,0,0,0,0,0,0,2.05,2.0527,2.0759,2.0766,2.0774,2.094,2.0902,2.1105,2.0995,2.0912,2.0987,2.0983,2.114,2.116,2.121,2.1407,2.1417,2.1294,2.1302,2.1307,2.1311,0,0,0,0,0,0,0,2.0512,2.0322,2.0717,2.0769,2.0776,2.095,2.0954,2.0958,2.0994,2.0991,2.0988,2.0985,2.1229,2.1241,2.1254,2.1395,0,0,2.1293,2.1298,0,0,0,0,0,0,0,0,2.0313,2.032,2.0718,2.0721,2.0724,2.0951,2.0954,2.0957,2.0994,2.0991,2.0989,2.0986,2.1232,2.1242,2.1252,0,0,0,0,0,0,0,0,0,0,0,0,0,0,0,2.0718,2.072,0,2.0951,2.0954,2.0956,2.0993,2.0991,2.0989,2.0987,2.1235,2.1243,2.1251,0,0,0,0,0,0,0,0,0,0,0,0,0,0,0,0,0,0,0,0,0,0,0,0,0,0,0,0,0,0,0,0,0,0,0,0,0,0,0,0,0,0,0,0,0,0,0,0,0,0,0,0,0,0,0,0,0,0,0,0,0,0,0,0,0,0,0,0,0]}],[{"header":{"parameterUnit":"kt","parameterCategory":2,"dx":1,"dy":1,"la1":30.253999710083008,"la2":30.299108505249023,"lo1":-89.0895004272461,"lo2":-89.04439544677734,"nx":28,"ny":28,"refTime":"2022-10-06T21:00:00:Z","depth":0,"parameterNumber":2,"parameterNumberName":"V-component_of_WINDS"},"data":[2.0335,2.0346,2.0324,2.0326,2.0306,2.0304,2.0296,2.0282,2.0266,2.0259,2.0251,2.0229,2.0203,2.0187,2.0176,2.0166,2.0164,2.0184,2.0169,2.0101,2.009,2.0079,2.0076,2.0183,2.0183,2.0244,2.0245,2.0245,2.0285,2.0266,2.0261,2.0241,2.0236,2.0203,2.0183,2.0182,2.018,2.0159,2.015,2.0142,2.0133,2.0099,2.0086,2.0089,2.0073,2.0087,2.0088,2.0084,2.001,2.0007,2.0101,2.0101,2.0101,2.01,2.01,2.01,2.0188,2.0196,2.0171,2.0165,2.0149,2.0135,2.0139,2.0112,2.0106,2.009,2.0064,2.0061,2.0036,2.0009,1.9994,1.9991,1.9971,1.9979,1.9982,1.9985,1.9992,1.9909,1.9987,1.9986,1.9986,1.9986,1.9986,0,2.0112,2.0093,2.0086,2.0073,2.0068,2.0055,2.004,2.0041,1.9993,1.999,1.9983,1.9976,1.996,1.9951,1.9934,1.9916,1.9883,1.9876,1.9882,1.9896,1.9911,1.9904,1.9785,1.9875,1.9874,1.9873,1.9872,1.9872,2.0014,2.0026,1.9989,1.9987,1.9974,1.9972,1.9966,1.9922,1.9918,1.9892,1.9901,1.9891,1.9882,1.9874,1.9842,1.983,1.9815,1.9851,1.9813,1.9825,1.9817,1.9817,1.9818,1.9861,1.9862,1.9863,1.9864,0,1.9961,1.9925,1.9936,1.9898,1.9889,1.9903,1.9871,1.9876,1.9849,1.9853,1.9851,1.981,1.9804,1.9766,1.9751,1.9732,1.9753,1.9736,1.9761,1.9756,1.9786,1.9785,1.9888,1.9899,1.9786,1.9787,1.9788,0,1.9865,1.9882,1.9827,1.9835,1.9852,1.9808,1.9825,1.9804,1.9783,1.9785,1.9741,1.9744,1.9695,1.9692,1.9663,1.9673,1.967,1.9656,1.9649,1.9662,1.9664,1.966,1.9656,1.963,1.9629,1.9629,1.9628,0,1.9788,1.9778,1.979,1.9782,1.9745,1.9751,1.9736,1.9711,1.9706,1.9693,1.9689,1.9676,1.967,1.9661,1.9624,1.96,1.9635,1.9594,1.9621,1.9623,1.9633,1.9634,1.9732,1.9628,1.9628,1.9628,1.9627,0,1.9705,1.9694,1.9717,1.9685,1.9684,1.9692,1.9678,1.9676,1.9654,1.9636,1.9625,1.9592,1.9597,1.9559,1.9566,1.9544,1.954,1.9527,1.9528,1.9529,1.9488,1.955,1.9647,1.9656,1.9525,1.9525,1.9524,0,1.9627,1.9642,1.9605,1.9628,1.963,1.9581,1.9588,1.957,1.9548,1.9545,1.952,1.9518,1.9481,1.9475,1.9483,1.9458,1.9485,1.9452,1.945,1.945,1.9459,1.9546,1.9572,1.9629,1.9512,1.9514,1.9514,0,1.9563,1.9517,1.9524,1.9514,1.9484,1.9485,1.9494,1.9482,1.9483,1.9467,1.9474,1.9469,1.9442,1.9433,1.9405,1.9415,1.9465,1.9385,1.9383,1.9401,1.9503,1.9527,1.9537,1.9444,1.9445,1.9446,1.9505,0,1.9448,1.945,1.9467,1.9446,1.9441,1.9454,1.9415,1.9415,1.9388,1.9365,1.9373,1.9349,1.9338,1.9339,1.9313,1.9349,1.9338,1.9309,1.9271,1.9328,1.9347,1.9355,1.9246,1.9245,1.9243,1.9243,0,0,1.9382,1.9386,1.9347,1.9355,1.9348,1.9298,1.9315,1.9303,1.928,1.9276,1.9254,1.9245,1.9227,1.9242,1.9257,1.9252,1.9255,1.9237,1.9301,1.9308,1.9314,1.9334,1.9343,1.924,1.924,1.924,1.9239,0,1.9333,1.9316,1.9334,1.9319,1.9297,1.9271,1.9276,1.9245,1.9231,1.9239,1.9198,1.9199,1.9194,1.918,1.9172,1.9233,1.9203,1.9232,1.9279,1.9291,1.9299,1.9306,1.9328,1.9337,1.9236,1.9237,1.9237,0,1.9264,1.9241,1.9246,1.9229,1.9214,1.9217,1.9167,1.9173,1.9175,1.912,1.913,1.9112,1.909,1.911,1.9117,1.9097,1.9158,1.9132,1.9138,1.9139,1.9149,1.9159,1.9167,1.9052,1.9051,1.9051,0,0,1.9227,1.9229,1.9192,1.9216,1.9209,1.9172,1.917,1.9144,1.9126,1.912,1.9096,1.908,1.9076,1.9075,1.9069,1.9096,1.9088,1.9111,1.912,1.9127,1.9132,1.9143,1.9153,1.9049,1.9049,1.9049,0,0,1.9209,1.9167,1.9144,1.9167,1.9151,1.9117,1.9132,1.9103,1.9095,1.9089,1.9046,1.904,1.9057,1.9041,1.9021,1.9055,1.9018,1.9022,1.9065,1.9076,1.9084,1.9089,1.8967,0,0,0,0,0,1.914,1.9172,1.9152,1.915,1.9129,1.9128,1.9125,1.909,1.9064,1.9077,1.9053,1.902,1.9021,1.9002,1.9001,1.9024,1.9025,1.9029,1.9033,1.9095,1.9107,1.9116,0,0,0,0,0,0,1.9139,1.9137,1.9151,1.9118,1.9113,1.9126,1.9075,1.9066,1.9062,1.9055,1.9026,1.9019,1.8989,1.9,1.8999,1.9023,1.8967,1.9027,1.903,1.9034,1.9099,1.9109,1.9117,0,0,0,0,0,1.9138,1.9136,1.9113,1.9117,1.9113,1.9074,1.9073,1.9066,1.9062,1.9025,1.9017,1.9036,1.8991,1.8988,1.9,1.9024,1.8968,1.8967,1.9029,1.9032,1.9035,1.9104,0,0,0,0,0,0,1.9137,1.9129,1.9111,1.9108,1.9103,1.9072,1.9067,1.9066,1.903,1.9023,1.9032,1.9028,1.8993,1.899,1.8988,1.9026,1.8968,1.8968,1.8967,1.9031,1.9034,1.9035,0,0,0,0,0,0,1.9129,1.9127,1.911,1.9093,1.9089,1.9071,1.9066,1.9071,1.9031,1.904,1.9035,1.9031,1.8995,1.8992,1.899,1.8999,1.8968,1.8968,1.8968,1.8968,1.9033,1.9035,0,0,0,0,0,0,1.9128,1.9126,1.9094,1.909,1.9086,1.9053,1.9075,1.9056,1.9017,1.9042,1.9013,1.9011,1.8998,1.8995,1.8991,1.9001,1.8999,1.8968,1.8968,1.8968,1.8968,0,0,0,0,0,0,0,1.9126,1.9149,1.9127,1.9088,1.9084,1.9084,1.9083,1.9082,1.9017,1.9015,1.9013,1.9011,1.8968,1.8968,1.8968,1.9003,0,0,1.8968,1.8968,0,0,0,0,0,0,0,0,1.9149,1.9149,1.9127,1.9126,1.9126,1.9084,1.9083,1.9083,1.9016,1.9015,1.9013,1.9012,1.8968,1.8968,1.8968,0,0,0,0,0,0,0,0,0,0,0,0,0,0,0,1.9127,1.9126,0,1.9084,1.9083,1.9083,1.9016,1.9015,1.9014,1.9013,1.8968,1.8968,1.8968,0,0,0,0,0,0,0,0,0,0,0,0,0,0,0,0,0,0,0,0,0,0,0,0,0,0,0,0,0,0,0,0,0,0,0,0,0,0,0,0,0,0,0,0,0,0,0,0,0,0,0,0,0,0,0,0,0,0,0,0,0,0,0,0,0,0,0,0,0]}]]]